Weather reports worldwide

Advertisment
Bonn-Roleber, Germany (10519): temperature & dewpoint: 07.12.2018 10:00:00 - 13.12.2018 10:00:00 (CET)Bonn-Roleber, Germany (10519): temperature 5cm & temperature -5cm: 07.12.2018 10:00:00 - 13.12.2018 10:00:00 (CET)Bonn-Roleber, Germany (10519): temperature -20cm & temperature -100cm: 07.12.2018 10:00:00 - 13.12.2018 10:00:00 (CET)Bonn-Roleber, Germany (10519): wind speed & gusts: 07.12.2018 10:00:00 - 13.12.2018 10:00:00 (CET)Bonn-Roleber, Germany (10519): wind direction: 07.12.2018 10:00:00 - 13.12.2018 10:00:00 (CET)Bonn-Roleber, Germany (10519): reduced air pressure: 07.12.2018 10:00:00 - 13.12.2018 10:00:00 (CET)Bonn-Roleber, Germany (10519): visibility: 07.12.2018 10:00:00 - 13.12.2018 10:00:00 (CET)Bonn-Roleber, Germany (10519): sunshine duration: 07.12.2018 10:00:00 - 13.12.2018 10:00:00 (CET)Bonn-Roleber, Germany (10519): precipitation: 07.12.2018 10:00:00 - 13.12.2018 10:00:00 (CET)
Date & Time tt [°C] td [°C] tt 5cm [°C] tt -5cm [°C] tt -20cm [°C] tt -100cm [°C] ff [km/h] ff [kn] fx [km/h] fx [kn] dd ppp [hPa] vv [km] sd [min] rr [mm]
13.12.2018 10:00:00 0,1 -3,4 -1,9 0,8 3,4 9,1 11 6 20 11 E 1021,6 18 60 0,0
13.12.2018 09:00:00 -1,2 -3,1 -3,0 0,8 3,5 9,1 8 4 14 7 E 1021,6 19 4 0,0
13.12.2018 08:00:00 -1,3 -2,7 -4,8 0,9 3,6 9,1 6 3 13 7 ENE 1021,3 22 0 0,0
13.12.2018 07:00:00 -1,1 -2,5 -3,0 0,9 3,7 9,1 7 4 16 9 ESE 1021,2 22 0 0,0
13.12.2018 06:00:00 -0,6 -1,7 -3,0 1,0 3,8 9,1 8 4 14 7 E 1021,4 19 0 0,0
13.12.2018 05:00:00 -1,6 -2,5 -3,7 1,1 4,0 9,1 6 4 11 6 SE 1021,9 14 0 0,0
13.12.2018 04:00:00 -1,3 -2,0 -3,2 1,2 4,1 9,1 8 4 11 6 ESE 1022,5 16 0 0,0
13.12.2018 03:00:00 -0,4 -1,4 -3,7 1,4 4,2 9,1 5 3 9 5 E 1022,9 16 0 0,0
13.12.2018 02:00:00 0,6 -0,8 -0,8 1,8 4,4 9,1 3 2 7 4 E 1023,1 23 0 0,0
13.12.2018 01:00:00 0,5 -1,1 -1,0 2,3 4,5 9,1 2 1 5 3 ENE 1023,5 19 0 0,0
13.12.2018 00:00:00 1,6 -0,7 0,3 2,7 4,5 9,1 3 2 7 4 NNE 1023,7 28 0 0,0
12.12.2018 23:00:00 2,3 -0,9 1,5 2,7 4,6 9,1 6 3 9 5 N 1024,2 33 0 0,0
12.12.2018 22:00:00 2,5 -1,0 1,4 2,7 4,6 9,2 4 2 11 6 NE 1024,4 42 0 0,0
12.12.2018 21:00:00 2,8 -1,1 2,1 2,7 4,7 9,2 8 5 14 7 ESE 1024,4 47 0 0,0
12.12.2018 20:00:00 2,3 -1,2 1,5 2,4 4,9 9,2 10 5 18 10 E 1024,7 43 0 0,0
12.12.2018 19:00:00 1,9 -0,2 0,4 3,0 5,0 9,2 5 3 8 5 E 1024,7 25 0 0,0
12.12.2018 18:00:00 1,1 -0,7 -0,6 2,8 5,2 9,2 4 2 6 3 E 1024,8 25 0 0,0
12.12.2018 17:00:00 2,4 -0,6 -1,8 3,6 5,3 9,2 5 3 7 4 ENE 1024,5 34 0 0,0
12.12.2018 16:00:00 4,2 -0,3 2,6 4,9 5,3 9,2 4 2 10 5 ENE 1024,4 39 14 0,0
12.12.2018 15:00:00 5,0 -0,5 5,4 5,2 5,1 9,2 6 3 15 8 E 1024,5 42 31 0,0
12.12.2018 14:00:00 5,1 -1,1 6,1 5,3 4,9 9,2 7 4 12 7 ENE 1024,9 43 31 0,0
12.12.2018 13:00:00 4,6 1,3 5,3 5,3 4,8 9,2 5 3 9 5 WNW 1025,3 12 49 0,0
12.12.2018 12:00:00 3,2 0,8 2,5 4,6 4,6 9,2 5 3 8 5 N 1026,0 13 0 0,0
12.12.2018 11:00:00 3,0 1,9 3,6 4,0 4,6 9,2 5 3 6 4 N 1026,3 4,6 0 0,0
12.12.2018 10:00:00 2,4 1,8 2,5 3,4 4,5 9,2 3 2 5 3 NE 1026,1 2,4 0 0,0
12.12.2018 09:00:00 2,2 1,9 2,0 3,1 4,5 9,3 3 2 6 3 E 1025,8 1,0 0 0,0
12.12.2018 08:00:00 2,0 1,7 1,7 3,1 4,5 9,3 4 2 6 3 W 1025,6 1,4 0 0,0
12.12.2018 07:00:00 2,1 1,6 1,8 3,1 4,5 9,3 0 0 5 3 N 1025,3 1,8 0 0,0
12.12.2018 06:00:00 2,2 1,8 1,9 3,0 4,5 9,3 0 0 6 3 N 1025,2 2,1 0 0,0
12.12.2018 05:00:00 2,3 1,8 2,0 2,9 4,5 9,3 3 1 6 3 WNW 1025,3 2,4 0 0,0
12.12.2018 04:00:00 2,2 1,7 1,8 2,8 4,6 9,3 3 1 6 4 NW 1025,2 3,6 0 0,0
12.12.2018 03:00:00 1,9 1,5 1,2 2,7 4,6 9,3 5 3 8 4 SSW 1025,0 1,9 0 0,0
12.12.2018 02:00:00 2,0 1,5 1,0 2,5 4,7 9,3 3 2 6 3 W 1025,0 1,8 0 0,0
12.12.2018 01:00:00 1,7 1,4 0,3 2,3 4,8 9,3 4 2 7 4 W 1025,1 1,1 0 0,0
12.12.2018 00:00:00 1,2 1,0 -0,9 2,1 5,0 9,3 4 2 6 4 W 1025,1 2,4 0 0,0
11.12.2018 23:00:00 1,6 0,9 -0,9 2,7 5,1 9,3 3 2 9 5 WSW 1024,8 6 0 0,0
11.12.2018 22:00:00 2,3 1,9 0,7 3,1 5,2 9,3 3 1 8 5 W 1024,9 10 0 0,0
11.12.2018 21:00:00 2,3 1,9 0,9 3,3 5,4 9,3 5 3 7 4 W 1024,8 4,7 0 0,0
11.12.2018 20:00:00 2,4 1,7 0,1 3,5 5,5 9,4 4 2 7 4 WSW 1024,8 7 0 0,0
11.12.2018 19:00:00 3,3 2,3 2,5 4,0 5,5 9,4 5 3 14 8 W 1024,4 16 0 0,0
11.12.2018 18:00:00 3,6 2,7 3,1 4,3 5,6 9,4 7 4 10 6 WNW 1024,1 12 0 0,0
11.12.2018 17:00:00 2,9 2,1 1,6 4,3 5,6 9,4 5 3 13 7 W 1024,0 16 0 0,3
11.12.2018 16:00:00 4,1 2,7 3,6 5,1 5,6 9,4 8 4 30 16 WNW 1023,9 3,0 0 0,0
11.12.2018 15:00:00 4,8 2,5 4,3 5,4 5,5 9,4 13 7 22 12 WNW 1023,9 26 0 0,0
11.12.2018 14:00:00 4,6 2,6 4,2 5,3 5,4 9,4 10 6 23 12 W 1024,0 17 0 0,0
11.12.2018 13:00:00 4,0 2,9 4,1 4,9 5,3 9,4 7 4 19 10 WNW 1024,4 13 0 0,0
11.12.2018 12:00:00 3,5 2,2 3,3 4,7 5,2 9,4 11 6 25 13 WNW 1024,5 15 12 1,1
11.12.2018 11:00:00 3,8 1,5 3,3 4,3 5,2 9,4 10 5 28 15 WNW 1024,6 23 0 0,0
11.12.2018 10:00:00 3,3 1,5 2,7 3,9 5,2 9,4 10 5 23 12 W 1024,3 16 0 0,0
11.12.2018 09:00:00 3,1 1,9 2,7 3,8 5,2 9,4 10 5 23 12 W 1024,2 12 0 0,1
11.12.2018 08:00:00 3,1 1,9 2,7 3,7 5,2 9,4 8 5 21 11 WNW 1024,0 17 0 0,0
11.12.2018 07:00:00 3,1 1,9 2,5 3,7 5,3 9,4 11 6 22 12 WNW 1023,9 13 0 0,0
11.12.2018 06:00:00 3,2 1,7 2,7 3,6 5,3 9,4 11 6 24 13 WNW 1023,9 20 0 0,0
11.12.2018 05:00:00 3,1 1,8 2,5 3,5 5,3 9,4 9 5 26 14 W 1023,8 15 0 0,0
11.12.2018 04:00:00 3,3 1,8 2,2 3,7 5,4 9,4 13 7 25 13 W 1023,7 19 0 0,0
11.12.2018 03:00:00 3,3 1,9 2,3 3,8 5,4 9,4 12 7 26 14 W 1023,9 17 0 0,1
11.12.2018 02:00:00 3,4 2,0 2,5 3,8 5,4 9,4 13 7 35 19 W 1023,8 18 0 0,1
11.12.2018 01:00:00 3,9 1,6 3,0 3,8 5,5 9,5 16 9 36 19 W 1023,9 26 0 0,0
11.12.2018 00:00:00 3,6 1,9 2,7 3,7 5,6 9,5 12 6 32 18 W 1023,8 22 0 0,2
10.12.2018 23:00:00 3,6 1,6 2,4 3,6 5,7 9,5 15 8 35 19 W 1024,0 23 0 0,0
10.12.2018 22:00:00 3,6 1,7 2,6 3,3 5,8 9,5 14 8 33 18 W 1023,8 28 0 0,0
10.12.2018 21:00:00 3,1 1,7 1,3 3,4 5,9 9,5 10 5 24 13 W 1023,6 28 0 0,0
10.12.2018 20:00:00 3,6 2,1 2,4 3,7 6,1 9,5 12 7 27 14 W 1023,7 18 0 0,0
10.12.2018 19:00:00 3,7 1,9 2,5 4,1 6,2 9,5 12 7 31 17 W 1023,4 32 0 0,0
10.12.2018 18:00:00 4,0 2,5 2,6 4,7 6,3 9,5 14 8 29 16 W 1022,8 28 0 0,0
10.12.2018 17:00:00 3,9 2,7 3,1 5,2 6,3 9,5 11 6 30 16 W 1022,7 27 0 0,0
10.12.2018 16:00:00 4,4 3,3 4,0 5,5 6,3 9,5 13 7 28 15 W 1022,1 13 0 0,0
10.12.2018 15:00:00 4,5 3,5 4,2 5,6 6,3 9,5 10 5 26 14 WNW 1021,7 6 0 0,2
10.12.2018 14:00:00 4,4 3,2 4,2 5,6 6,3 9,5 17 9 34 18 WNW 1021,8 13 0 0,7
10.12.2018 13:00:00 4,1 2,5 3,8 5,7 6,2 9,5 20 11 41 22 WNW 1022,3 2,2 0 0,1
10.12.2018 12:00:00 5,0 2,3 4,5 5,5 6,2 9,5 16 9 33 18 WNW 1022,2 22 2 0,0
10.12.2018 11:00:00 4,3 2,7 3,8 5,0 6,2 9,5 15 8 35 19 W 1022,3 16 0 0,3
10.12.2018 10:00:00 4,4 2,0 4,1 4,7 6,3 9,5 14 8 32 18 W 1021,9 41 4 0,0
10.12.2018 09:00:00 4,2 2,1 3,5 4,5 6,4 9,5 13 7 34 18 W 1021,3 23 0 0,0
10.12.2018 08:00:00 4,2 2,2 3,6 4,6 6,5 9,5 14 8 31 17 W 1020,8 22 0 0,0
10.12.2018 07:00:00 4,4 2,2 3,5 4,8 6,6 9,5 14 7 43 23 W 1020,1 37 0 0,0
10.12.2018 06:00:00 4,4 2,4 3,5 4,8 6,7 9,5 13 7 37 20 W 1019,4 47 0 0,0
10.12.2018 05:00:00 4,7 2,5 3,9 5,2 6,7 9,5 14 8 35 19 W 1019,1 14 0 0,0
10.12.2018 04:00:00 5,0 2,6 4,0 5,2 6,8 9,5 17 9 38 21 W 1018,6 30 0 0,0
10.12.2018 03:00:00 5,2 2,7 4,2 5,6 6,9 9,5 18 10 39 21 W 1018,0 38 0 0,0
10.12.2018 02:00:00 5,3 3,8 4,7 5,7 7,0 9,5 16 9 37 20 W 1017,1 25 0 0,1
10.12.2018 01:00:00 5,1 3,7 4,5 5,8 7,0 9,5 16 8 35 19 WNW 1016,5 11 0 0,4
10.12.2018 00:00:00 5,4 4,0 4,7 5,9 7,1 9,5 15 8 34 18 W 1015,7 26 0 0,3
09.12.2018 23:00:00 5,7 4,4 5,0 5,9 7,2 9,5 15 8 36 19 WNW 1014,4 27 0 0,1
09.12.2018 22:00:00 6,0 3,9 5,1 6,1 7,3 9,5 19 10 38 20 WNW 1013,5 34 0 0,0
09.12.2018 21:00:00 6,0 4,2 5,0 6,4 7,3 9,5 20 11 44 24 WNW 1012,3 29 0 1,2
09.12.2018 20:00:00 6,2 5,0 5,7 6,6 7,4 9,5 13 7 49 26 WNW 1011,1 1,7 0 0,3
09.12.2018 19:00:00 7,0 4,6 6,1 6,6 7,4 9,5 20 11 46 25 WNW 1009,3 32 0 0,0
09.12.2018 18:00:00 6,8 5,4 5,9 6,7 7,4 9,5 17 9 37 20 W 1007,5 27 0 0,3
09.12.2018 17:00:00 6,7 5,6 5,9 6,9 7,4 9,5 12 7 31 17 W 1006,2 22 0 0,0
09.12.2018 16:00:00 6,5 5,6 6,1 7,2 7,4 9,5 11 6 36 20 W 1004,8 38 0 2,1
09.12.2018 15:00:00 6,9 5,8 6,5 7,6 7,4 9,5 21 11 41 22 WNW 1003,3 2,1 1 0,6
09.12.2018 14:00:00 6,3 4,8 6,2 7,0 7,4 9,5 14 8 36 20 W 1001,8 70 0 0,0
09.12.2018 13:00:00 6,2 5,0 5,9 7,0 7,4 9,5 15 8 47 26 W 1001,4 56 0 2,7
09.12.2018 12:00:00 8,2 5,2 7,0 7,2 7,3 9,5 14 8 40 22 W 1000,9 16 0 0,1
09.12.2018 11:00:00 8,1 5,0 7,0 6,9 7,3 9,5 16 9 43 23 W 1000,6 14 0 0,0
09.12.2018 10:00:00 8,8 4,1 8,0 6,8 7,3 9,5 18 10 42 23 W 1000,1 44 0 0,0
09.12.2018 09:00:00 8,7 3,5 7,7 6,7 7,3 9,5 16 9 46 25 W 999,6 45 0 0,0
09.12.2018 08:00:00 8,4 4,2 6,7 6,7 7,4 9,5 19 11 49 26 W 998,6 36 0 0,5
09.12.2018 07:00:00 9,0 4,0 7,5 6,7 7,4 9,5 23 12 53 28 W 997,7 10 0 0,0
09.12.2018 06:00:00 8,9 4,1 7,5 6,7 7,4 9,5 24 13 56 30 W 997,4 39 0 0,0
09.12.2018 05:00:00 8,6 4,7 6,8 6,7 7,4 9,5 22 12 46 25 W 997,2 22 0 0,0
09.12.2018 04:00:00 8,9 3,9 6,7 6,6 7,5 9,5 22 12 53 29 W 996,9 33 0 0,0
09.12.2018 03:00:00 9,2 4,4 7,6 7,1 7,5 9,5 21 12 55 30 W 996,6 30 0 0,0
09.12.2018 02:00:00 8,7 5,9 7,3 7,3 7,5 9,5 19 10 50 27 W 996,4 33 0 0,4
09.12.2018 01:00:00 9,6 6,1 8,0 7,3 7,4 9,5 16 8 44 24 WSW 996,2 34 0 0,0
09.12.2018 00:00:00 9,3 6,8 7,8 7,3 7,4 9,5 12 7 53 28 WSW 996,6 54 0 0,7
08.12.2018 23:00:00 9,0 7,7 8,1 7,3 7,4 9,5 26 14 49 26 SW 996,9 1,6 0 1,1
08.12.2018 22:00:00 8,7 7,2 7,8 7,1 7,3 9,5 20 11 47 26 SSW 998,2 70 0 1,5
08.12.2018 21:00:00 8,5 6,5 7,4 7,0 7,3 9,5 23 12 43 23 SSW 999,6 70 0 0,5
08.12.2018 20:00:00 8,3 5,9 7,1 6,9 7,3 9,5 15 8 44 24 SW 1001,5 36 0 0,1
08.12.2018 19:00:00 8,6 5,6 7,2 6,9 7,3 9,5 19 10 39 21 SSW 1003,1 59 0 0,1
08.12.2018 18:00:00 9,2 5,0 7,5 6,8 7,3 9,5 16 9 34 18 SW 1004,4 22 0 0,1
08.12.2018 17:00:00 9,3 4,2 7,9 6,8 7,3 9,5 13 7 35 19 SW 1005,1 35 0 0,0
08.12.2018 16:00:00 9,0 4,5 7,5 7,0 7,2 9,5 11 6 34 19 SW 1005,4 13 0 0,0
08.12.2018 15:00:00 9,0 4,2 8,3 7,0 7,2 9,5 15 8 46 25 WSW 1005,6 40 0 0,0
08.12.2018 14:00:00 8,7 4,2 7,1 7,0 7,1 9,5 14 8 36 20 WSW 1005,8 44 0 0,2
08.12.2018 13:00:00 8,2 4,7 7,0 6,7 7,0 9,5 20 11 51 27 W 1006,1 28 0 0,0
08.12.2018 12:00:00 7,4 4,3 6,5 6,5 7,0 9,5 16 9 39 21 SW 1006,1 21 0 0,0
08.12.2018 11:00:00 7,0 3,4 7,1 6,3 7,0 9,5 19 10 43 23 SW 1006,1 70 12 0,0
08.12.2018 10:00:00 6,5 3,4 5,7 5,7 7,0 9,5 18 10 40 22 SW 1006,5 70 3 0,1
08.12.2018 09:00:00 5,8 3,1 4,0 5,4 7,1 9,5 16 9 35 19 SW 1006,4 69 0 0,0
08.12.2018 08:00:00 5,8 3,4 4,4 5,7 7,1 9,5 18 10 41 22 SSW 1007,1 70 0 0,2
08.12.2018 07:00:00 6,4 3,2 5,8 5,6 7,2 9,5 18 10 39 21 SSW 1007,0 70 0 0,0
08.12.2018 06:00:00 6,2 3,0 5,5 5,5 7,3 9,5 18 10 32 17 SSW 1007,5 69 0 0,0
08.12.2018 05:00:00 6,6 1,9 5,7 5,3 7,5 9,5 14 8 38 20 SSW 1007,7 59 0 0,0
08.12.2018 04:00:00 6,2 1,7 4,7 5,2 7,6 9,5 14 7 36 20 WSW 1008,2 61 0 0,0
08.12.2018 03:00:00 6,4 2,1 5,0 5,7 7,8 9,5 15 8 39 21 WSW 1008,3 70 0 0,0
08.12.2018 02:00:00 6,4 2,0 4,3 5,6 8,0 9,5 10 6 25 14 WSW 1007,8 44 0 0,0
08.12.2018 01:00:00 6,3 2,1 3,8 6,1 8,2 9,5 12 6 32 17 WSW 1007,8 41 0 0,0
08.12.2018 00:00:00 6,8 2,7 4,9 6,8 8,4 9,5 16 9 37 20 W 1007,5 37 0 0,0
07.12.2018 23:00:00 6,4 3,5 5,2 7,0 8,5 9,5 17 9 40 22 W 1006,6 37 0 0,1
07.12.2018 22:00:00 5,9 4,2 4,7 7,5 8,7 9,5 11 6 34 18 WSW 1005,7 53 0 0,6
07.12.2018 21:00:00 6,1 4,5 5,5 8,0 8,7 9,5 23 13 67 36 W 1004,6 24 0 0,8
07.12.2018 20:00:00 8,1 5,6 7,0 8,6 8,8 9,5 16 8 44 24 W 1001,8 26 0 1,4
07.12.2018 19:00:00 9,8 7,5 8,6 8,8 8,8 9,4 18 10 38 21 SSW 999,9 13 0 0,4
07.12.2018 18:00:00 10,2 7,0 8,9 8,9 8,9 9,4 19 10 45 25 S 1000,3 48 0 0,0
07.12.2018 17:00:00 10,8 6,7 9,6 9,2 8,9 9,4 25 13 53 29 S 1001,7 70 0 0,0
07.12.2018 16:00:00 11,2 6,7 10,5 9,5 8,8 9,4 28 15 55 30 SSW 1002,8 70 0 0,0
07.12.2018 15:00:00 12,0 7,2 11,6 9,6 8,7 9,4 24 13 57 31 SSW 1003,8 70 5 0,0
07.12.2018 14:00:00 11,7 7,6 11,0 9,5 8,7 9,4 27 14 45 25 SSW 1005,2 70 0 0,0
07.12.2018 13:00:00 11,6 7,7 10,7 9,4 8,6 9,4 24 13 46 25 SSW 1007,0 70 0 0,0
07.12.2018 12:00:00 11,4 8,0 10,2 9,4 8,6 9,4 21 12 42 23 SSW 1008,8 70 0 0,0
07.12.2018 11:00:00 11,4 8,2 10,3 9,2 8,5 9,4 21 11 38 21 SSW 1009,9 70 0 0,0
07.12.2018 10:00:00 11,2 8,3 10,0 9,0 8,5 9,4 24 13 36 19 SSW 1010,8 63 0 0,0

tt = temperature
td = dewpoint
tt 5cm = temperature 5cm
tt -5cm = temperature -5cm
tt -20cm = temperature -20cm
tt -100cm = temperature -100cm
ff = wind speed
fx = gusts
dd = wind direction
ppp = reduced air pressure
vv = visibility
sd = sunshine duration
rr = precipitation

Next stations